Location: Unspecified
(51.1514°N, 0.0000°E)
Time: 04:20:00
(UTC+00:00)

YUBILEINY - Visible Passes

Search period start: 05 April 2026 00:00
Search period end: 15 April 2026 00:00
Orbit: 1477 x 1509 km, 82.5° (Epoch: 29 March)

Date Brightness Start Highest point End Pass type
(mag) Time Alt. Az. Time Alt. Az. Time Alt. Az.
5 Apr ? 01:07:26 10° NNW 01:16:12 87° W 01:17:57 63° S visible
5 Apr ? 03:05:28 10° NNW 03:11:47 23° WNW 03:13:51 21° W visible
5 Apr ? 22:21:49 10° N 22:27:18 18° NE 22:32:43 10° E visible
6 Apr ? 00:17:45 10° N 00:26:23 60° ENE 00:28:36 48° ESE visible
6 Apr ? 02:15:02 10° NNW 02:22:50 39° W 02:24:29 36° WSW visible
6 Apr ? 21:33:40 10° NNE 21:36:01 11° NE 21:38:21 10° NE visible
6 Apr ? 23:28:13 10° N 23:36:11 38° ENE 23:39:16 30° ESE visible
7 Apr ? 01:25:00 10° NNW 01:33:34 64° W 01:35:09 55° SW visible
7 Apr ? 03:24:01 10° NW 03:28:30 15° WNW 03:31:02 14° W visible
7 Apr ? 22:38:51 10° N 22:45:38 24° NE 22:49:56 17° E visible
8 Apr ? 00:35:11 10° N 00:43:57 82° E 00:45:49 61° SSE visible
8 Apr ? 02:32:57 10° NNW 02:39:48 27° WNW 02:41:42 25° W visible
8 Apr ? 21:49:52 10° N 21:54:39 15° NE 21:59:23 10° ENE visible
8 Apr ? 23:45:33 10° N 23:54:02 52° ENE 23:56:30 42° ESE visible
9 Apr ? 01:42:40 10° NNW 01:50:45 45° W 01:52:23 41° WSW visible
9 Apr ? 22:56:03 10° N 23:03:44 33° ENE 23:07:11 25° E visible
10 Apr ? 00:52:43 10° NNW 01:01:23 73° W 01:03:04 60° SSW visible
10 Apr ? 02:51:13 10° NNW 02:56:36 18° WNW 02:58:58 17° W visible
10 Apr ? 22:06:47 10° N 22:13:03 21° NE 22:17:53 14° E visible
11 Apr ? 00:02:57 10° N 00:11:41 72° ENE 00:13:47 55° SE visible
11 Apr ? 02:00:29 10° NNW 02:07:48 32° W 02:09:41 29° WSW visible
11 Apr ? 21:18:01 10° NNE 21:21:56 13° NE 21:25:50 10° ENE visible
11 Apr ? 23:13:21 10° N 23:21:39 45° ENE 23:24:30 36° ESE visible
12 Apr ? 01:10:19 10° NNW 01:18:39 52° W 01:20:23 46° WSW visible
12 Apr ? 03:10:30 10° NW 03:13:15 12° WNW 03:16:00 10° W visible
12 Apr ? 22:23:55 10° N 22:31:15 29° ENE 22:35:13 21° E visible
13 Apr ? 00:20:26 10° NNW 00:29:11 84° W 00:31:06 60° S visible
13 Apr ? 02:18:34 10° NNW 02:24:40 22° WNW 02:27:00 20° W visible
13 Apr ? 21:34:44 10° N 21:40:26 18° NE 21:45:57 10° E visible
13 Apr ? 23:30:44 10° N 23:39:23 63° ENE 23:41:51 47° SE visible
14 Apr ? 01:28:04 10° NNW 01:35:46 37° W 01:37:45 33° WSW visible
14 Apr ? 20:46:22 10° NNE 20:49:11 12° NE 20:52:00 10° NE visible
14 Apr ? 22:41:10 10° N 22:49:15 40° ENE 22:52:35 30° ESE visible
